#datetime,building,power
2023-12-14T00:00:00,axn,27.43
2023-12-14T00:01:00,axn,27.61
2023-12-14T00:02:00,axn,27.49
2023-12-14T00:03:00,axn,28.33
2023-12-14T00:04:00,axn,27.31
2023-12-14T00:05:00,axn,28.08
2023-12-14T00:06:00,axn,27.57
2023-12-14T00:07:00,axn,27.21
2023-12-14T00:08:00,axn,27.16
2023-12-14T00:09:00,axn,27.22
2023-12-14T00:10:00,axn,27.38
2023-12-14T00:11:00,axn,27.68
2023-12-14T00:12:00,axn,27.63
2023-12-14T00:13:00,axn,27.73
2023-12-14T00:14:00,axn,27.73
2023-12-14T00:15:00,axn,27.65
2023-12-14T00:16:00,axn,27.59
2023-12-14T00:17:00,axn,27.46
2023-12-14T00:18:00,axn,27.54
2023-12-14T00:19:00,axn,27.28
2023-12-14T00:20:00,axn,28.15
2023-12-14T00:21:00,axn,28.22
2023-12-14T00:22:00,axn,27.69
2023-12-14T00:23:00,axn,27.44
2023-12-14T00:24:00,axn,29.29
2023-12-14T00:25:00,axn,27.77
2023-12-14T00:26:00,axn,27.73
2023-12-14T00:27:00,axn,27.40
2023-12-14T00:28:00,axn,27.40
2023-12-14T00:29:00,axn,27.91
2023-12-14T00:30:00,axn,27.56
2023-12-14T00:31:00,axn,27.72
2023-12-14T00:32:00,axn,28.31
2023-12-14T00:33:00,axn,27.99
2023-12-14T00:34:00,axn,39.00
2023-12-14T00:35:00,axn,38.22
2023-12-14T00:36:00,axn,38.15
2023-12-14T00:37:00,axn,37.98
2023-12-14T00:38:00,axn,27.64
2023-12-14T00:39:00,axn,27.77
2023-12-14T00:40:00,axn,28.32
2023-12-14T00:41:00,axn,27.86
2023-12-14T00:42:00,axn,28.09
2023-12-14T00:43:00,axn,27.78
2023-12-14T00:44:00,axn,28.11
2023-12-14T00:45:00,axn,27.59
2023-12-14T00:46:00,axn,28.50
2023-12-14T00:47:00,axn,28.29
2023-12-14T00:48:00,axn,27.49
2023-12-14T00:49:00,axn,42.59
2023-12-14T00:50:00,axn,42.37
2023-12-14T00:51:00,axn,42.45
2023-12-14T00:52:00,axn,42.70
2023-12-14T00:53:00,axn,42.03
2023-12-14T00:54:00,axn,41.98
2023-12-14T00:55:00,axn,27.59
2023-12-14T00:56:00,axn,27.80
2023-12-14T00:57:00,axn,27.66
2023-12-14T00:58:00,axn,27.90
2023-12-14T00:59:00,axn,28.05
2023-12-14T01:00:00,axn,28.35
2023-12-14T01:01:00,axn,27.96
2023-12-14T01:02:00,axn,30.96
2023-12-14T01:03:00,axn,31.06
2023-12-14T01:04:00,axn,28.00
2023-12-14T01:05:00,axn,27.87
2023-12-14T01:06:00,axn,27.77
2023-12-14T01:07:00,axn,27.79
2023-12-14T01:08:00,axn,27.82
2023-12-14T01:09:00,axn,27.77
2023-12-14T01:10:00,axn,27.76
2023-12-14T01:11:00,axn,27.92
2023-12-14T01:12:00,axn,27.74
2023-12-14T01:13:00,axn,27.83
2023-12-14T01:14:00,axn,27.90
2023-12-14T01:15:00,axn,27.84
2023-12-14T01:16:00,axn,27.84
2023-12-14T01:17:00,axn,28.04
2023-12-14T01:18:00,axn,27.01
2023-12-14T01:19:00,axn,27.06
2023-12-14T01:20:00,axn,27.17
2023-12-14T01:21:00,axn,27.38
2023-12-14T01:22:00,axn,27.61
2023-12-14T01:23:00,axn,27.29
2023-12-14T01:24:00,axn,27.08
2023-12-14T01:25:00,axn,27.27
2023-12-14T01:26:00,axn,27.29
2023-12-14T01:27:00,axn,27.57
2023-12-14T01:28:00,axn,27.45
2023-12-14T01:29:00,axn,27.53
2023-12-14T01:30:00,axn,29.03
2023-12-14T01:31:00,axn,28.42
2023-12-14T01:32:00,axn,27.34
2023-12-14T01:33:00,axn,27.29
2023-12-14T01:34:00,axn,27.26
2023-12-14T01:35:00,axn,27.64
2023-12-14T01:36:00,axn,27.20
2023-12-14T01:37:00,axn,27.32
2023-12-14T01:38:00,axn,27.24
2023-12-14T01:39:00,axn,27.91
2023-12-14T01:40:00,axn,27.90
2023-12-14T01:41:00,axn,26.89
2023-12-14T01:42:00,axn,26.87
2023-12-14T01:43:00,axn,26.85
2023-12-14T01:44:00,axn,26.84
2023-12-14T01:45:00,axn,26.57
2023-12-14T01:46:00,axn,26.87
2023-12-14T01:47:00,axn,26.74
2023-12-14T01:48:00,axn,27.96
2023-12-14T01:49:00,axn,26.81
2023-12-14T01:50:00,axn,26.84
2023-12-14T01:51:00,axn,27.20
2023-12-14T01:52:00,axn,26.86
2023-12-14T01:53:00,axn,26.85
2023-12-14T01:54:00,axn,26.91
2023-12-14T01:55:00,axn,27.11
2023-12-14T01:56:00,axn,26.85
2023-12-14T01:57:00,axn,26.99
2023-12-14T01:58:00,axn,26.75
2023-12-14T01:59:00,axn,26.96
2023-12-14T02:00:00,axn,27.13
2023-12-14T02:01:00,axn,27.19
2023-12-14T02:02:00,axn,27.62
2023-12-14T02:03:00,axn,27.27
2023-12-14T02:04:00,axn,27.94
2023-12-14T02:05:00,axn,27.22
2023-12-14T02:06:00,axn,27.29
2023-12-14T02:07:00,axn,27.52
2023-12-14T02:08:00,axn,27.27
2023-12-14T02:09:00,axn,27.22
2023-12-14T02:10:00,axn,27.18
2023-12-14T02:11:00,axn,27.37
2023-12-14T02:12:00,axn,27.68
2023-12-14T02:13:00,axn,27.37
2023-12-14T02:14:00,axn,27.32
2023-12-14T02:15:00,axn,27.30
2023-12-14T02:16:00,axn,27.34
2023-12-14T02:17:00,axn,27.57
2023-12-14T02:18:00,axn,27.19
2023-12-14T02:19:00,axn,27.05
2023-12-14T02:20:00,axn,27.16
2023-12-14T02:21:00,axn,27.64
2023-12-14T02:22:00,axn,27.73
2023-12-14T02:23:00,axn,27.37
2023-12-14T02:24:00,axn,27.08
2023-12-14T02:25:00,axn,27.33
2023-12-14T02:26:00,axn,27.12
2023-12-14T02:27:00,axn,27.01
2023-12-14T02:28:00,axn,26.98
2023-12-14T02:29:00,axn,27.15
2023-12-14T02:30:00,axn,27.24
2023-12-14T02:31:00,axn,27.78
2023-12-14T02:32:00,axn,27.56
2023-12-14T02:33:00,axn,28.77
2023-12-14T02:34:00,axn,27.38
2023-12-14T02:35:00,axn,27.32
2023-12-14T02:36:00,axn,27.49
2023-12-14T02:37:00,axn,27.42
2023-12-14T02:38:00,axn,28.05
2023-12-14T02:39:00,axn,27.42
2023-12-14T02:40:00,axn,27.39
2023-12-14T02:41:00,axn,27.73
2023-12-14T02:42:00,axn,27.73
2023-12-14T02:43:00,axn,27.67
2023-12-14T02:44:00,axn,27.53
2023-12-14T02:45:00,axn,27.76
2023-12-14T02:46:00,axn,28.01
2023-12-14T02:47:00,axn,27.62
2023-12-14T02:48:00,axn,27.36
2023-12-14T02:49:00,axn,27.39
2023-12-14T02:50:00,axn,27.95
2023-12-14T02:51:00,axn,27.98
2023-12-14T02:52:00,axn,28.29
2023-12-14T02:53:00,axn,28.27
2023-12-14T02:54:00,axn,28.02
2023-12-14T02:55:00,axn,27.95
2023-12-14T02:56:00,axn,27.87
2023-12-14T02:57:00,axn,28.01
2023-12-14T02:58:00,axn,27.88
2023-12-14T02:59:00,axn,27.77
2023-12-14T03:00:00,axn,28.00
2023-12-14T03:01:00,axn,28.47
2023-12-14T03:02:00,axn,28.32
2023-12-14T03:03:00,axn,27.91
2023-12-14T03:04:00,axn,27.97
2023-12-14T03:05:00,axn,27.87
2023-12-14T03:06:00,axn,27.18
2023-12-14T03:07:00,axn,27.07
2023-12-14T03:08:00,axn,27.14
2023-12-14T03:09:00,axn,27.09
2023-12-14T03:10:00,axn,27.38
2023-12-14T03:11:00,axn,27.56
2023-12-14T03:12:00,axn,28.19
2023-12-14T03:13:00,axn,27.64
2023-12-14T03:14:00,axn,27.45
2023-12-14T03:15:00,axn,27.83
2023-12-14T03:16:00,axn,27.61
2023-12-14T03:17:00,axn,27.68
2023-12-14T03:18:00,axn,27.49
2023-12-14T03:19:00,axn,27.66
2023-12-14T03:20:00,axn,27.43
2023-12-14T03:21:00,axn,27.85
2023-12-14T03:22:00,axn,27.33
2023-12-14T03:23:00,axn,27.67
2023-12-14T03:24:00,axn,27.70
2023-12-14T03:25:00,axn,30.44
2023-12-14T03:26:00,axn,27.70
2023-12-14T03:27:00,axn,27.94
2023-12-14T03:28:00,axn,27.82
2023-12-14T03:29:00,axn,27.51
2023-12-14T03:30:00,axn,27.16
2023-12-14T03:31:00,axn,27.81
2023-12-14T03:32:00,axn,27.28
2023-12-14T03:33:00,axn,27.52
2023-12-14T03:34:00,axn,27.51
2023-12-14T03:35:00,axn,27.83
2023-12-14T03:36:00,axn,27.40
2023-12-14T03:37:00,axn,27.29
2023-12-14T03:38:00,axn,27.28
2023-12-14T03:39:00,axn,27.42
2023-12-14T03:40:00,axn,27.24
2023-12-14T03:41:00,axn,27.68
2023-12-14T03:42:00,axn,27.63
2023-12-14T03:43:00,axn,27.47
2023-12-14T03:44:00,axn,27.60
2023-12-14T03:45:00,axn,28.18
2023-12-14T03:46:00,axn,27.95
2023-12-14T03:47:00,axn,27.05
2023-12-14T03:48:00,axn,27.12
2023-12-14T03:49:00,axn,27.16
2023-12-14T03:50:00,axn,27.24
2023-12-14T03:51:00,axn,27.35
2023-12-14T03:52:00,axn,27.14
2023-12-14T03:53:00,axn,27.25
2023-12-14T03:54:00,axn,26.95
2023-12-14T03:55:00,axn,51.37
2023-12-14T03:56:00,axn,26.52
2023-12-14T03:57:00,axn,26.64
2023-12-14T03:58:00,axn,26.44
2023-12-14T03:59:00,axn,26.36
2023-12-14T04:00:00,axn,26.31
2023-12-14T04:01:00,axn,26.44
2023-12-14T04:02:00,axn,26.70
2023-12-14T04:03:00,axn,26.39
2023-12-14T04:04:00,axn,26.32
2023-12-14T04:05:00,axn,26.58
2023-12-14T04:06:00,axn,26.61
2023-12-14T04:07:00,axn,26.03
2023-12-14T04:08:00,axn,26.23
2023-12-14T04:09:00,axn,26.45
2023-12-14T04:10:00,axn,26.09
2023-12-14T04:11:00,axn,26.17
2023-12-14T04:12:00,axn,26.18
2023-12-14T04:13:00,axn,26.22
2023-12-14T04:14:00,axn,26.03
2023-12-14T04:15:00,axn,26.22
2023-12-14T04:16:00,axn,26.20
2023-12-14T04:17:00,axn,26.09
2023-12-14T04:18:00,axn,26.13
2023-12-14T04:19:00,axn,26.28
2023-12-14T04:20:00,axn,26.50
2023-12-14T04:21:00,axn,26.50
2023-12-14T04:22:00,axn,26.46
2023-12-14T04:23:00,axn,26.26
2023-12-14T04:24:00,axn,26.52
2023-12-14T04:25:00,axn,26.61
2023-12-14T04:26:00,axn,26.08
2023-12-14T04:27:00,axn,26.29
2023-12-14T04:28:00,axn,26.14
2023-12-14T04:29:00,axn,26.18
2023-12-14T04:30:00,axn,26.42
2023-12-14T04:31:00,axn,26.43
2023-12-14T04:32:00,axn,26.72
2023-12-14T04:33:00,axn,27.20
2023-12-14T04:34:00,axn,26.88
2023-12-14T04:35:00,axn,26.14
2023-12-14T04:36:00,axn,26.31
2023-12-14T04:37:00,axn,25.83
2023-12-14T04:38:00,axn,25.95
2023-12-14T04:39:00,axn,25.98
2023-12-14T04:40:00,axn,26.07
2023-12-14T04:41:00,axn,26.20
2023-12-14T04:42:00,axn,26.82
2023-12-14T04:43:00,axn,26.57
2023-12-14T04:44:00,axn,26.54
2023-12-14T04:45:00,axn,26.88
2023-12-14T04:46:00,axn,26.91
2023-12-14T04:47:00,axn,26.53
2023-12-14T04:48:00,axn,37.55
2023-12-14T04:49:00,axn,37.32
2023-12-14T04:50:00,axn,37.28
2023-12-14T04:51:00,axn,37.07
2023-12-14T04:52:00,axn,36.91
2023-12-14T04:53:00,axn,26.74
2023-12-14T04:54:00,axn,26.82
2023-12-14T04:55:00,axn,27.22
2023-12-14T04:56:00,axn,26.92
2023-12-14T04:57:00,axn,26.71
2023-12-14T04:58:00,axn,27.23
2023-12-14T04:59:00,axn,27.83
2023-12-14T05:00:00,axn,27.77
2023-12-14T05:01:00,axn,24.88
2023-12-14T05:02:00,axn,24.83
2023-12-14T05:03:00,axn,25.19
2023-12-14T05:04:00,axn,25.64
2023-12-14T05:05:00,axn,25.15
2023-12-14T05:06:00,axn,25.34
2023-12-14T05:07:00,axn,29.56
2023-12-14T05:08:00,axn,31.91
2023-12-14T05:09:00,axn,35.18
2023-12-14T05:10:00,axn,34.40
2023-12-14T05:11:00,axn,34.79
2023-12-14T05:12:00,axn,34.37
2023-12-14T05:13:00,axn,34.20
2023-12-14T05:14:00,axn,33.98
2023-12-14T05:15:00,axn,34.29
2023-12-14T05:16:00,axn,34.31
2023-12-14T05:17:00,axn,33.57
2023-12-14T05:18:00,axn,33.36
2023-12-14T05:19:00,axn,33.35
2023-12-14T05:20:00,axn,33.76
2023-12-14T05:21:00,axn,33.78
2023-12-14T05:22:00,axn,33.35
2023-12-14T05:23:00,axn,32.97
2023-12-14T05:24:00,axn,32.77
2023-12-14T05:25:00,axn,32.98
2023-12-14T05:26:00,axn,34.61
2023-12-14T05:27:00,axn,34.70
2023-12-14T05:28:00,axn,33.10
2023-12-14T05:29:00,axn,33.51
2023-12-14T05:30:00,axn,33.18
2023-12-14T05:31:00,axn,34.96
2023-12-14T05:32:00,axn,34.82
2023-12-14T05:33:00,axn,34.53
2023-12-14T05:34:00,axn,34.08
2023-12-14T05:35:00,axn,34.12
2023-12-14T05:36:00,axn,33.96
2023-12-14T05:37:00,axn,33.84
2023-12-14T05:38:00,axn,33.16
2023-12-14T05:39:00,axn,33.73
2023-12-14T05:40:00,axn,34.97
2023-12-14T05:41:00,axn,35.14
2023-12-14T05:42:00,axn,35.20
2023-12-14T05:43:00,axn,34.95
2023-12-14T05:44:00,axn,34.83
2023-12-14T05:45:00,axn,34.79
2023-12-14T05:46:00,axn,34.64
2023-12-14T05:47:00,axn,39.90
2023-12-14T05:48:00,axn,39.64
2023-12-14T05:49:00,axn,39.51
2023-12-14T05:50:00,axn,33.41
2023-12-14T05:51:00,axn,33.74
2023-12-14T05:52:00,axn,33.82
2023-12-14T05:53:00,axn,34.02
2023-12-14T05:54:00,axn,33.41
2023-12-14T05:55:00,axn,33.22
2023-12-14T05:56:00,axn,33.71
2023-12-14T05:57:00,axn,33.53
2023-12-14T05:58:00,axn,32.98
2023-12-14T05:59:00,axn,32.96
2023-12-14T06:00:00,axn,32.81
2023-12-14T06:01:00,axn,33.13
2023-12-14T06:02:00,axn,32.49
2023-12-14T06:03:00,axn,33.64
2023-12-14T06:04:00,axn,33.37
2023-12-14T06:05:00,axn,33.11
2023-12-14T06:06:00,axn,32.97
2023-12-14T06:07:00,axn,35.78
2023-12-14T06:08:00,axn,35.65
2023-12-14T06:09:00,axn,32.67
2023-12-14T06:10:00,axn,32.61
2023-12-14T06:11:00,axn,32.57
2023-12-14T06:12:00,axn,33.04
2023-12-14T06:13:00,axn,47.18
2023-12-14T06:14:00,axn,46.70
2023-12-14T06:15:00,axn,46.88
2023-12-14T06:16:00,axn,46.56
2023-12-14T06:17:00,axn,46.02
2023-12-14T06:18:00,axn,45.76
2023-12-14T06:19:00,axn,32.18
2023-12-14T06:20:00,axn,32.02
2023-12-14T06:21:00,axn,32.03
2023-12-14T06:22:00,axn,32.97
2023-12-14T06:23:00,axn,32.60
2023-12-14T06:24:00,axn,31.79
2023-12-14T06:25:00,axn,31.52
2023-12-14T06:26:00,axn,31.68
2023-12-14T06:27:00,axn,32.34
2023-12-14T06:28:00,axn,31.86
2023-12-14T06:29:00,axn,31.91
2023-12-14T06:30:00,axn,31.76
2023-12-14T06:31:00,axn,31.93
2023-12-14T06:32:00,axn,32.18
2023-12-14T06:33:00,axn,32.05
2023-12-14T06:34:00,axn,32.38
2023-12-14T06:35:00,axn,32.30
2023-12-14T06:36:00,axn,32.24
2023-12-14T06:37:00,axn,32.26
2023-12-14T06:38:00,axn,32.16
2023-12-14T06:39:00,axn,31.97
2023-12-14T06:40:00,axn,32.02
2023-12-14T06:41:00,axn,32.18
2023-12-14T06:42:00,axn,32.18
2023-12-14T06:43:00,axn,32.10
2023-12-14T06:44:00,axn,32.97
2023-12-14T06:45:00,axn,32.84
2023-12-14T06:46:00,axn,32.75
2023-12-14T06:47:00,axn,32.56
2023-12-14T06:48:00,axn,32.46
2023-12-14T06:49:00,axn,32.23
2023-12-14T06:50:00,axn,32.59
2023-12-14T06:51:00,axn,32.93
2023-12-14T06:52:00,axn,32.98
2023-12-14T06:53:00,axn,33.02
2023-12-14T06:54:00,axn,33.41
2023-12-14T06:55:00,axn,33.28
2023-12-14T06:56:00,axn,33.91
2023-12-14T06:57:00,axn,33.74
2023-12-14T06:58:00,axn,33.26
2023-12-14T06:59:00,axn,33.12
2023-12-14T07:00:00,axn,33.17
2023-12-14T07:01:00,axn,35.07
2023-12-14T07:02:00,axn,35.52
2023-12-14T07:03:00,axn,36.04
2023-12-14T07:04:00,axn,36.08
2023-12-14T07:05:00,axn,35.99
2023-12-14T07:06:00,axn,34.83
2023-12-14T07:07:00,axn,36.07
2023-12-14T07:08:00,axn,36.00
2023-12-14T07:09:00,axn,34.99
2023-12-14T07:10:00,axn,34.04
2023-12-14T07:11:00,axn,36.11
2023-12-14T07:12:00,axn,34.33
2023-12-14T07:13:00,axn,35.04
2023-12-14T07:14:00,axn,35.63
2023-12-14T07:15:00,axn,34.66
2023-12-14T07:16:00,axn,34.41
2023-12-14T07:17:00,axn,39.19
2023-12-14T07:18:00,axn,39.20
2023-12-14T07:19:00,axn,39.20
2023-12-14T07:20:00,axn,35.83
2023-12-14T07:21:00,axn,36.16
2023-12-14T07:22:00,axn,35.79
2023-12-14T07:23:00,axn,36.50
2023-12-14T07:24:00,axn,35.36
2023-12-14T07:25:00,axn,35.63
2023-12-14T07:26:00,axn,35.50
2023-12-14T07:27:00,axn,37.29
2023-12-14T07:28:00,axn,35.81
2023-12-14T07:29:00,axn,36.59
2023-12-14T07:30:00,axn,36.72
2023-12-14T07:31:00,axn,36.72
2023-12-14T07:32:00,axn,37.77
2023-12-14T07:33:00,axn,37.31
2023-12-14T07:34:00,axn,37.81
2023-12-14T07:35:00,axn,38.17
2023-12-14T07:36:00,axn,39.93
2023-12-14T07:37:00,axn,40.13
2023-12-14T07:38:00,axn,39.98
2023-12-14T07:39:00,axn,51.68
2023-12-14T07:40:00,axn,41.31
2023-12-14T07:41:00,axn,39.49
2023-12-14T07:42:00,axn,41.29
2023-12-14T07:43:00,axn,42.78
2023-12-14T07:44:00,axn,42.95
2023-12-14T07:45:00,axn,54.09
2023-12-14T07:46:00,axn,43.02
2023-12-14T07:47:00,axn,42.97
2023-12-14T07:48:00,axn,43.43
2023-12-14T07:49:00,axn,44.57
2023-12-14T07:50:00,axn,45.46
2023-12-14T07:51:00,axn,66.74
2023-12-14T07:52:00,axn,45.69
2023-12-14T07:53:00,axn,45.52
2023-12-14T07:54:00,axn,43.62
2023-12-14T07:55:00,axn,43.72
2023-12-14T07:56:00,axn,43.18
2023-12-14T07:57:00,axn,42.83
2023-12-14T07:58:00,axn,43.23
2023-12-14T07:59:00,axn,42.94
2023-12-14T08:00:00,axn,42.86
2023-12-14T08:01:00,axn,45.77
2023-12-14T08:02:00,axn,45.20
2023-12-14T08:03:00,axn,45.21
2023-12-14T08:04:00,axn,47.40
2023-12-14T08:05:00,axn,47.51
2023-12-14T08:06:00,axn,46.90
2023-12-14T08:07:00,axn,45.73
2023-12-14T08:08:00,axn,46.28
2023-12-14T08:09:00,axn,45.38
2023-12-14T08:10:00,axn,45.51
2023-12-14T08:11:00,axn,45.45
2023-12-14T08:12:00,axn,45.57
2023-12-14T08:13:00,axn,46.00
2023-12-14T08:14:00,axn,47.03
2023-12-14T08:15:00,axn,47.45
2023-12-14T08:16:00,axn,48.60
2023-12-14T08:17:00,axn,46.61
2023-12-14T08:18:00,axn,47.46
2023-12-14T08:19:00,axn,48.51
2023-12-14T08:20:00,axn,46.91
2023-12-14T08:21:00,axn,48.75
2023-12-14T08:22:00,axn,48.98
2023-12-14T08:23:00,axn,48.15
2023-12-14T08:24:00,axn,47.74
2023-12-14T08:25:00,axn,48.90
2023-12-14T08:26:00,axn,47.44
2023-12-14T08:27:00,axn,46.91
2023-12-14T08:28:00,axn,46.72
2023-12-14T08:29:00,axn,46.69
2023-12-14T08:30:00,axn,46.84
2023-12-14T08:31:00,axn,47.44
2023-12-14T08:32:00,axn,46.70
2023-12-14T08:33:00,axn,46.68
2023-12-14T08:34:00,axn,46.72
2023-12-14T08:35:00,axn,47.25
2023-12-14T08:36:00,axn,48.90
2023-12-14T08:37:00,axn,46.37
2023-12-14T08:38:00,axn,48.81
2023-12-14T08:39:00,axn,49.01
2023-12-14T08:40:00,axn,49.20
2023-12-14T08:41:00,axn,49.97
2023-12-14T08:42:00,axn,47.91
2023-12-14T08:43:00,axn,48.28
2023-12-14T08:44:00,axn,47.56
2023-12-14T08:45:00,axn,60.41
2023-12-14T08:46:00,axn,56.92
2023-12-14T08:47:00,axn,57.40
2023-12-14T08:48:00,axn,56.41
2023-12-14T08:49:00,axn,55.55
2023-12-14T08:50:00,axn,45.46
2023-12-14T08:51:00,axn,46.04
2023-12-14T08:52:00,axn,45.83
2023-12-14T08:53:00,axn,45.70
2023-12-14T08:54:00,axn,46.47
2023-12-14T08:55:00,axn,46.39
2023-12-14T08:56:00,axn,45.93
2023-12-14T08:57:00,axn,47.38
2023-12-14T08:58:00,axn,48.13
2023-12-14T08:59:00,axn,47.81
2023-12-14T09:00:00,axn,49.71
2023-12-14T09:01:00,axn,49.71
2023-12-14T09:02:00,axn,49.79
2023-12-14T09:03:00,axn,47.06
2023-12-14T09:04:00,axn,49.19
2023-12-14T09:05:00,axn,49.56
2023-12-14T09:06:00,axn,47.19
2023-12-14T09:07:00,axn,46.75
2023-12-14T09:08:00,axn,47.40
2023-12-14T09:09:00,axn,48.74
2023-12-14T09:10:00,axn,48.62
2023-12-14T09:11:00,axn,46.90
2023-12-14T09:12:00,axn,46.72
2023-12-14T09:13:00,axn,47.09
2023-12-14T09:14:00,axn,46.98
2023-12-14T09:15:00,axn,46.94
2023-12-14T09:16:00,axn,47.00
2023-12-14T09:17:00,axn,47.29
2023-12-14T09:18:00,axn,46.98
2023-12-14T09:19:00,axn,46.89
2023-12-14T09:20:00,axn,46.75
2023-12-14T09:21:00,axn,46.63
2023-12-14T09:22:00,axn,47.90
2023-12-14T09:23:00,axn,50.34
2023-12-14T09:24:00,axn,49.31
2023-12-14T09:25:00,axn,47.07
2023-12-14T09:26:00,axn,49.10
2023-12-14T09:27:00,axn,47.73
2023-12-14T09:28:00,axn,47.41
2023-12-14T09:29:00,axn,48.62
2023-12-14T09:30:00,axn,47.34
2023-12-14T09:31:00,axn,49.00
2023-12-14T09:32:00,axn,49.94
2023-12-14T09:33:00,axn,48.09
2023-12-14T09:34:00,axn,48.03
2023-12-14T09:35:00,axn,47.34
2023-12-14T09:36:00,axn,49.27
2023-12-14T09:37:00,axn,47.54
2023-12-14T09:38:00,axn,48.06
2023-12-14T09:39:00,axn,47.12
2023-12-14T09:40:00,axn,47.14
2023-12-14T09:41:00,axn,48.27
2023-12-14T09:42:00,axn,47.75
2023-12-14T09:43:00,axn,47.65
2023-12-14T09:44:00,axn,47.13
2023-12-14T09:45:00,axn,47.38
2023-12-14T09:46:00,axn,47.58
2023-12-14T09:47:00,axn,47.29
2023-12-14T09:48:00,axn,47.12
2023-12-14T09:49:00,axn,48.27
2023-12-14T09:50:00,axn,48.13
2023-12-14T09:51:00,axn,48.50
2023-12-14T09:52:00,axn,48.64
2023-12-14T09:53:00,axn,50.61
2023-12-14T09:54:00,axn,50.41
2023-12-14T09:55:00,axn,47.82
2023-12-14T09:56:00,axn,47.37
2023-12-14T09:57:00,axn,47.41
2023-12-14T09:58:00,axn,49.58
2023-12-14T09:59:00,axn,48.03
2023-12-14T10:00:00,axn,47.24
2023-12-14T10:01:00,axn,50.81
2023-12-14T10:02:00,axn,52.66
2023-12-14T10:03:00,axn,50.00
2023-12-14T10:04:00,axn,48.91
2023-12-14T10:05:00,axn,47.65
2023-12-14T10:06:00,axn,48.92
2023-12-14T10:07:00,axn,49.50
2023-12-14T10:08:00,axn,47.97
2023-12-14T10:09:00,axn,47.85
2023-12-14T10:10:00,axn,49.58
2023-12-14T10:11:00,axn,49.42
2023-12-14T10:12:00,axn,49.06
2023-12-14T10:13:00,axn,47.29
2023-12-14T10:14:00,axn,56.44
2023-12-14T10:15:00,axn,55.39
2023-12-14T10:16:00,axn,56.42
2023-12-14T10:17:00,axn,56.43
2023-12-14T10:18:00,axn,56.69
2023-12-14T10:19:00,axn,56.18
2023-12-14T10:20:00,axn,70.96
2023-12-14T10:21:00,axn,71.00
2023-12-14T10:22:00,axn,71.01
2023-12-14T10:23:00,axn,70.83
2023-12-14T10:24:00,axn,70.52
2023-12-14T10:25:00,axn,57.80
2023-12-14T10:26:00,axn,57.82
2023-12-14T10:27:00,axn,57.56
2023-12-14T10:28:00,axn,56.88
2023-12-14T10:29:00,axn,58.97
2023-12-14T10:30:00,axn,57.97
2023-12-14T10:31:00,axn,56.58
2023-12-14T10:32:00,axn,57.10
2023-12-14T10:33:00,axn,57.13
2023-12-14T10:34:00,axn,72.32
2023-12-14T10:35:00,axn,57.11
2023-12-14T10:36:00,axn,57.81
2023-12-14T10:37:00,axn,58.59
2023-12-14T10:38:00,axn,58.30
2023-12-14T10:39:00,axn,58.15
2023-12-14T10:40:00,axn,58.75
2023-12-14T10:41:00,axn,60.45
2023-12-14T10:42:00,axn,59.40
2023-12-14T10:43:00,axn,55.93
2023-12-14T10:44:00,axn,56.16
2023-12-14T10:45:00,axn,55.88
2023-12-14T10:46:00,axn,56.08
2023-12-14T10:47:00,axn,56.02
2023-12-14T10:48:00,axn,55.70
2023-12-14T10:49:00,axn,56.74
2023-12-14T10:50:00,axn,55.90
2023-12-14T10:51:00,axn,55.72
2023-12-14T10:52:00,axn,55.64
2023-12-14T10:53:00,axn,55.26
2023-12-14T10:54:00,axn,55.03
2023-12-14T10:55:00,axn,55.28
2023-12-14T10:56:00,axn,55.50
2023-12-14T10:57:00,axn,55.59
2023-12-14T10:58:00,axn,55.24
2023-12-14T10:59:00,axn,55.39
2023-12-14T11:00:00,axn,56.16
2023-12-14T11:01:00,axn,58.84
2023-12-14T11:02:00,axn,57.90
2023-12-14T11:03:00,axn,55.80
2023-12-14T11:04:00,axn,58.24
2023-12-14T11:05:00,axn,56.04
2023-12-14T11:06:00,axn,58.14
2023-12-14T11:07:00,axn,55.79
2023-12-14T11:08:00,axn,56.39
2023-12-14T11:09:00,axn,58.11
2023-12-14T11:10:00,axn,60.06
2023-12-14T11:11:00,axn,58.45
2023-12-14T11:12:00,axn,58.77
2023-12-14T11:13:00,axn,57.81
2023-12-14T11:14:00,axn,56.33
2023-12-14T11:15:00,axn,56.67
2023-12-14T11:16:00,axn,60.09
2023-12-14T11:17:00,axn,57.55
2023-12-14T11:18:00,axn,55.99
2023-12-14T11:19:00,axn,56.31
2023-12-14T11:20:00,axn,56.51
2023-12-14T11:21:00,axn,56.05
2023-12-14T11:22:00,axn,55.87
2023-12-14T11:23:00,axn,57.08
2023-12-14T11:24:00,axn,56.76
2023-12-14T11:25:00,axn,57.46
2023-12-14T11:26:00,axn,56.50
2023-12-14T11:27:00,axn,57.02
2023-12-14T11:28:00,axn,56.34
2023-12-14T11:29:00,axn,57.05
2023-12-14T11:30:00,axn,58.00
2023-12-14T11:31:00,axn,57.05
2023-12-14T11:32:00,axn,57.01
2023-12-14T11:33:00,axn,56.53
2023-12-14T11:34:00,axn,56.60
2023-12-14T11:35:00,axn,56.62
2023-12-14T11:36:00,axn,56.40
2023-12-14T11:37:00,axn,56.55
2023-12-14T11:38:00,axn,56.89
2023-12-14T11:39:00,axn,57.71
2023-12-14T11:40:00,axn,59.30
2023-12-14T11:41:00,axn,58.72
2023-12-14T11:42:00,axn,56.55
2023-12-14T11:43:00,axn,58.73
2023-12-14T11:44:00,axn,59.06
2023-12-14T11:45:00,axn,58.13
2023-12-14T11:46:00,axn,57.59
2023-12-14T11:47:00,axn,50.60
2023-12-14T11:48:00,axn,50.15
2023-12-14T11:49:00,axn,48.09
2023-12-14T11:50:00,axn,49.46
2023-12-14T11:51:00,axn,47.80
2023-12-14T11:52:00,axn,49.05
2023-12-14T11:53:00,axn,48.98
2023-12-14T11:54:00,axn,47.85
2023-12-14T11:55:00,axn,48.03
2023-12-14T11:56:00,axn,47.38
2023-12-14T11:57:00,axn,46.20
2023-12-14T11:58:00,axn,48.59
2023-12-14T11:59:00,axn,46.99
2023-12-14T12:00:00,axn,46.70
2023-12-14T12:01:00,axn,46.43
2023-12-14T12:02:00,axn,46.88
2023-12-14T12:03:00,axn,46.14
2023-12-14T12:04:00,axn,46.26
2023-12-14T12:05:00,axn,46.66
2023-12-14T12:06:00,axn,46.38
2023-12-14T12:07:00,axn,46.38
2023-12-14T12:08:00,axn,64.28
2023-12-14T12:09:00,axn,64.11
2023-12-14T12:10:00,axn,64.20
2023-12-14T12:11:00,axn,64.95
2023-12-14T12:12:00,axn,53.82
2023-12-14T12:13:00,axn,54.43
2023-12-14T12:14:00,axn,54.09
2023-12-14T12:15:00,axn,57.33
2023-12-14T12:16:00,axn,56.32
2023-12-14T12:17:00,axn,55.03
2023-12-14T12:18:00,axn,54.93
2023-12-14T12:19:00,axn,54.64
2023-12-14T12:20:00,axn,54.76
2023-12-14T12:21:00,axn,53.97
2023-12-14T12:22:00,axn,56.98
2023-12-14T12:23:00,axn,54.22
2023-12-14T12:24:00,axn,56.71
2023-12-14T12:25:00,axn,55.46
2023-12-14T12:26:00,axn,55.83
2023-12-14T12:27:00,axn,54.70
2023-12-14T12:28:00,axn,55.69
2023-12-14T12:29:00,axn,53.32
2023-12-14T12:30:00,axn,53.41
2023-12-14T12:31:00,axn,54.13
2023-12-14T12:32:00,axn,53.29
2023-12-14T12:33:00,axn,55.48
2023-12-14T12:34:00,axn,55.86
2023-12-14T12:35:00,axn,55.31
2023-12-14T12:36:00,axn,54.46
2023-12-14T12:37:00,axn,53.21
2023-12-14T12:38:00,axn,55.53
2023-12-14T12:39:00,axn,44.79
2023-12-14T12:40:00,axn,44.79
2023-12-14T12:41:00,axn,45.22
2023-12-14T12:42:00,axn,44.92
2023-12-14T12:43:00,axn,44.89
2023-12-14T12:44:00,axn,44.70
2023-12-14T12:45:00,axn,44.79
2023-12-14T12:46:00,axn,44.75
2023-12-14T12:47:00,axn,45.51
2023-12-14T12:48:00,axn,45.07
2023-12-14T12:49:00,axn,45.37
2023-12-14T12:50:00,axn,44.27
2023-12-14T12:51:00,axn,44.36
2023-12-14T12:52:00,axn,44.40
2023-12-14T12:53:00,axn,44.69
2023-12-14T12:54:00,axn,44.55
2023-12-14T12:55:00,axn,45.51
2023-12-14T12:56:00,axn,44.45
2023-12-14T12:57:00,axn,46.77
2023-12-14T12:58:00,axn,45.55
2023-12-14T12:59:00,axn,44.70
2023-12-14T13:00:00,axn,48.86
2023-12-14T13:01:00,axn,47.09
2023-12-14T13:02:00,axn,47.35
2023-12-14T13:03:00,axn,47.21
2023-12-14T13:04:00,axn,58.41
2023-12-14T13:05:00,axn,45.85
2023-12-14T13:06:00,axn,47.43
2023-12-14T13:07:00,axn,46.02
2023-12-14T13:08:00,axn,45.77
2023-12-14T13:09:00,axn,47.30
2023-12-14T13:10:00,axn,45.20
2023-12-14T13:11:00,axn,46.43
2023-12-14T13:12:00,axn,46.32
2023-12-14T13:13:00,axn,47.51
2023-12-14T13:14:00,axn,60.73
2023-12-14T13:15:00,axn,60.27
2023-12-14T13:16:00,axn,59.44
2023-12-14T13:17:00,axn,60.28
2023-12-14T13:18:00,axn,59.55